Location: Cicognara
(44.9500°N, 10.4667°E)
Time: 07:08:30
(UTC+00:00)

Cosmos 1455 - Pass Details

Date: 20 June 2021
Orbit: 496 x 522 km, 82.5° (Epoch: 28 July)

Event Time Altitude Azimuth Distance (km) Brightness Sun altitude
Rises 22:23:26 0° 345° (NNW) 2,642 7.4 -20.4°
Reaches altitude 10° 22:25:38 10° 340° (NNW) 1,745 6.1 -20.5°
Maximum altitude 22:29:18 46° 266° (W) 695 2.8 -20.6°
Enters shadow 22:29:49 43° 241° (WSW) 730 2.7 -20.7°
